User: anonymous   Login
Location: Brede
(50.9167°N, 0.6000°E)
Time: 11:11:16
(UTC+00:00)
Language:

Cosmos 2219 Rocket - Orbit

View from above orbital plane
View from above orbital plane
View from above satellite
View from above satellite

Ground track
Ground track

The orbit data is extracted from the following two-line orbital elements,

1 22220U 92076B   20299.95748289 +.00000144 +00000-0 +96517-4 0  9997
2 22220 071.0017 356.8653 0013976 212.1939 320.8797 14.16459940444152
Epoch (UTC): 25 October 2020 22:58:46
Eccentricity: 0.0013976
inclination: 71.0017°
perigee height: 827 km
apogee height: 847 km
right ascension of ascending node: 356.8653°
argument of perigee: 212.1939°
revolutions per day: 14.16459940
mean anomaly at epoch: 320.8797°
orbit number at epoch: 44415

The dashed part of the orbit path shows where the satellite is in the earth's shadow,  

DLR